Time,TemperatureF,DewpointF,PressureIn,WindDirection,WindDirectionDegrees,WindSpeedMPH,WindSpeedGustMPH,Humidity,HourlyPrecipIn,Conditions,Clouds,dailyrainin,SoftwareType,DateUTC
2013-02-24 00:07:00,32.7,32.0,29.86,NE,41,0.0,0.0,98,0.00,,,0.00,weatherlink.com 1.10,2013-02-24 05:07:00,
2013-02-24 00:22:00,32.7,32.0,29.86,NE,41,0.0,0.0,98,0.00,,,0.00,weatherlink.com 1.10,2013-02-24 05:22:00,
2013-02-24 00:37:00,32.6,32.0,29.86,NE,41,0.0,0.0,98,0.01,,,0.01,weatherlink.com 1.10,2013-02-24 05:37:00,
2013-02-24 00:52:00,32.7,32.0,29.86,NE,41,0.0,0.0,98,0.01,,,0.01,weatherlink.com 1.10,2013-02-24 05:52:00,
2013-02-24 01:07:00,32.7,32.0,29.85,NE,41,0.0,0.0,98,0.01,,,0.01,weatherlink.com 1.10,2013-02-24 06:07:00,
2013-02-24 01:22:00,32.7,32.0,29.85,NE,41,0.0,0.0,98,0.01,,,0.01,weatherlink.com 1.10,2013-02-24 06:22:00,
2013-02-24 01:37:00,32.6,32.0,29.84,NE,41,0.0,0.0,98,0.00,,,0.01,weatherlink.com 1.10,2013-02-24 06:37:00,
2013-02-24 01:52:00,32.6,32.0,29.84,NE,41,0.0,1.0,98,0.00,,,0.01,weatherlink.com 1.10,2013-02-24 06:52:00,
2013-02-24 02:07:00,32.6,32.0,29.83,NE,41,0.0,0.0,98,0.00,,,0.01,weatherlink.com 1.10,2013-02-24 07:07:00,
2013-02-24 02:22:00,32.6,32.0,29.83,NE,41,0.0,0.0,98,0.00,,,0.01,weatherlink.com 1.10,2013-02-24 07:22:00,
2013-02-24 02:37:00,32.6,32.0,29.83,NE,41,0.0,0.0,99,0.00,,,0.01,weatherlink.com 1.10,2013-02-24 07:37:00,
2013-02-24 02:52:00,32.5,32.0,29.83,NE,41,0.0,0.0,98,0.00,,,0.01,weatherlink.com 1.10,2013-02-24 07:52:00,
2013-02-24 03:07:00,32.5,32.0,29.82,NE,41,0.0,0.0,98,0.00,,,0.01,weatherlink.com 1.10,2013-02-24 08:07:00,
2013-02-24 03:22:00,32.4,32.0,29.81,NE,41,0.0,0.0,98,0.00,,,0.01,weatherlink.com 1.10,2013-02-24 08:22:00,
2013-02-24 03:37:00,32.4,32.0,29.81,NE,41,0.0,0.0,98,0.01,,,0.02,weatherlink.com 1.10,2013-02-24 08:37:00,
2013-02-24 03:52:00,32.4,32.0,29.81,NE,41,0.0,0.0,99,0.01,,,0.02,weatherlink.com 1.10,2013-02-24 08:52:00,
2013-02-24 04:07:00,32.4,32.0,29.82,NE,41,0.0,0.0,99,0.01,,,0.02,weatherlink.com 1.10,2013-02-24 09:07:00,
2013-02-24 04:22:00,32.4,32.0,29.82,NE,41,0.0,0.0,99,0.01,,,0.02,weatherlink.com 1.10,2013-02-24 09:22:00,
2013-02-24 04:37:00,32.4,32.0,29.83,NE,41,0.0,0.0,99,0.00,,,0.02,weatherlink.com 1.10,2013-02-24 09:37:00,
2013-02-24 04:52:00,32.4,32.0,29.83,NE,41,0.0,0.0,99,0.00,,,0.02,weatherlink.com 1.10,2013-02-24 09:52:00,
2013-02-24 05:07:00,32.3,32.0,29.82,NE,41,0.0,0.0,99,0.00,,,0.02,weatherlink.com 1.10,2013-02-24 10:07:00,
2013-02-24 05:37:00,32.3,32.0,29.82,NE,41,0.0,0.0,99,0.00,,,0.02,weatherlink.com 1.10,2013-02-24 10:37:00,
2013-02-24 05:52:00,32.4,32.0,29.82,NE,41,0.0,0.0,99,0.00,,,0.02,weatherlink.com 1.10,2013-02-24 10:52:00,
2013-02-24 06:07:00,32.5,32.0,29.81,NE,41,0.0,0.0,99,0.00,,,0.02,weatherlink.com 1.10,2013-02-24 11:07:00,
2013-02-24 06:22:00,32.5,32.0,29.81,NE,41,0.0,0.0,99,0.00,,,0.02,weatherlink.com 1.10,2013-02-24 11:22:00,
2013-02-24 06:37:00,32.6,32.0,29.81,NNW,342,0.0,0.0,99,0.00,,,0.02,weatherlink.com 1.10,2013-02-24 11:37:00,
2013-02-24 06:52:00,32.6,32.0,29.81,NNW,330,0.0,0.0,99,0.00,,,0.02,weatherlink.com 1.10,2013-02-24 11:52:00,
2013-02-24 07:07:00,32.6,32.0,29.82,WSW,250,0.0,0.0,99,0.00,,,0.02,weatherlink.com 1.10,2013-02-24 12:07:00,
2013-02-24 07:22:00,32.7,33.0,29.82,West,280,0.0,0.0,99,0.00,,,0.02,weatherlink.com 1.10,2013-02-24 12:22:00,
2013-02-24 07:37:00,32.8,33.0,29.81,West,276,0.0,0.0,99,0.00,,,0.02,weatherlink.com 1.10,2013-02-24 12:37:00,
2013-02-24 07:52:00,32.8,33.0,29.82,West,276,0.0,0.0,99,0.00,,,0.02,weatherlink.com 1.10,2013-02-24 12:52:00,
2013-02-24 08:07:00,32.9,33.0,29.81,West,280,0.0,0.0,99,0.00,,,0.02,weatherlink.com 1.10,2013-02-24 13:07:00,
2013-02-24 08:22:00,33.1,33.0,29.81,West,278,0.0,0.0,99,0.01,,,0.03,weatherlink.com 1.10,2013-02-24 13:22:00,
2013-02-24 08:37:00,33.3,33.0,29.80,West,276,0.0,0.0,99,0.01,,,0.03,weatherlink.com 1.10,2013-02-24 13:37:00,
2013-02-24 08:52:00,33.6,33.0,29.80,NW,319,0.0,2.0,99,0.01,,,0.03,weatherlink.com 1.10,2013-02-24 13:52:00,
2013-02-24 09:07:00,33.6,33.0,29.80,WNW,296,0.0,1.0,99,0.02,,,0.04,weatherlink.com 1.10,2013-02-24 14:07:00,
2013-02-24 09:22:00,33.7,34.0,29.79,West,268,0.0,1.0,99,0.01,,,0.04,weatherlink.com 1.10,2013-02-24 14:22:00,
2013-02-24 09:37:00,33.8,34.0,29.79,WNW,282,0.0,0.0,99,0.01,,,0.04,weatherlink.com 1.10,2013-02-24 14:37:00,
2013-02-24 09:52:00,33.8,34.0,29.79,WNW,289,0.0,2.0,99,0.02,,,0.05,weatherlink.com 1.10,2013-02-24 14:52:00,
2013-02-24 10:07:00,34.1,34.0,29.79,West,281,1.0,4.0,99,0.01,,,0.05,weatherlink.com 1.10,2013-02-24 15:07:00,
2013-02-24 10:22:00,34.5,34.0,29.79,WSW,251,1.0,1.0,98,0.02,,,0.06,weatherlink.com 1.10,2013-02-24 15:22:00,
2013-02-24 10:37:00,34.9,34.0,29.79,North,357,0.0,1.0,98,0.02,,,0.06,weatherlink.com 1.10,2013-02-24 15:37:00,
2013-02-24 10:52:00,35.1,34.0,29.79,WNW,285,0.0,2.0,97,0.01,,,0.06,weatherlink.com 1.10,2013-02-24 15:52:00,
2013-02-24 11:07:00,35.5,35.0,29.79,WNW,286,0.0,0.0,97,0.01,,,0.06,weatherlink.com 1.10,2013-02-24 16:07:00,
2013-02-24 11:23:00,36.1,35.0,29.78,West,266,0.0,1.0,97,0.00,,,0.06,weatherlink.com 1.10,2013-02-24 16:23:00,
2013-02-24 11:38:00,36.7,36.0,29.78,West,262,0.0,3.0,96,0.01,,,0.07,weatherlink.com 1.10,2013-02-24 16:38:00,
2013-02-24 11:53:00,37.2,35.0,29.78,WNW,285,2.0,6.0,93,0.01,,,0.07,weatherlink.com 1.10,2013-02-24 16:53:00,
2013-02-24 12:08:00,37.7,35.0,29.78,NW,324,1.0,7.0,90,0.01,,,0.07,weatherlink.com 1.10,2013-02-24 17:08:00,
2013-02-24 12:23:00,38.2,35.0,29.77,North,354,2.0,8.0,87,0.01,,,0.07,weatherlink.com 1.10,2013-02-24 17:23:00,
2013-02-24 12:38:00,38.2,34.0,29.78,NW,325,2.0,7.0,86,0.00,,,0.07,weatherlink.com 1.10,2013-02-24 17:38:00,
2013-02-24 12:53:00,38.3,34.0,29.77,NW,310,2.0,7.0,84,0.00,,,0.07,weatherlink.com 1.10,2013-02-24 17:53:00,
2013-02-24 13:09:00,38.4,33.0,29.77,NW,316,1.0,8.0,82,0.00,,,0.07,weatherlink.com 1.10,2013-02-24 18:09:00,
2013-02-24 13:23:00,38.4,33.0,29.77,WNW,302,2.0,6.0,81,0.00,,,0.07,weatherlink.com 1.10,2013-02-24 18:23:00,
2013-02-24 13:38:00,38.3,33.0,29.77,NW,319,4.0,8.0,80,0.00,,,0.07,weatherlink.com 1.10,2013-02-24 18:38:00,
2013-02-24 13:54:00,37.5,32.0,29.77,NW,319,3.0,11.0,79,0.00,,,0.07,weatherlink.com 1.10,2013-02-24 18:54:00,
2013-02-24 14:08:00,37.2,31.0,29.77,WNW,285,6.0,8.0,79,0.00,,,0.07,weatherlink.com 1.10,2013-02-24 19:08:00,
2013-02-24 14:23:00,36.9,31.0,29.77,North,349,2.0,7.0,79,0.00,,,0.07,weatherlink.com 1.10,2013-02-24 19:23:00,
2013-02-24 14:38:00,36.2,30.0,29.77,WNW,302,2.0,13.0,79,0.00,,,0.07,weatherlink.com 1.10,2013-02-24 19:38:00,
2013-02-24 14:53:00,35.9,30.0,29.78,West,280,2.0,12.0,78,0.00,,,0.07,weatherlink.com 1.10,2013-02-24 19:53:00,
2013-02-24 15:08:00,35.6,29.0,29.78,NW,310,5.0,13.0,76,0.00,,,0.07,weatherlink.com 1.10,2013-02-24 20:08:00,
2013-02-24 15:23:00,35.2,27.0,29.79,West,279,4.0,15.0,73,0.00,,,0.07,weatherlink.com 1.10,2013-02-24 20:23:00,
2013-02-24 15:38:00,35.1,28.0,29.79,SW,232,4.0,15.0,74,0.00,,,0.07,weatherlink.com 1.10,2013-02-24 20:38:00,
2013-02-24 15:53:00,35.1,28.0,29.79,NW,323,0.0,10.0,74,0.00,,,0.07,weatherlink.com 1.10,2013-02-24 20:53:00,
2013-02-24 16:08:00,34.9,27.0,29.80,WNW,298,2.0,9.0,74,0.00,,,0.07,weatherlink.com 1.10,2013-02-24 21:08:00,
2013-02-24 16:23:00,34.6,27.0,29.80,WNW,287,1.0,13.0,73,0.00,,,0.07,weatherlink.com 1.10,2013-02-24 21:23:00,
2013-02-24 16:38:00,34.4,27.0,29.81,NW,320,4.0,9.0,74,0.00,,,0.07,weatherlink.com 1.10,2013-02-24 21:38:00,
2013-02-24 16:53:00,34.3,27.0,29.82,NW,305,2.0,9.0,75,0.00,,,0.07,weatherlink.com 1.10,2013-02-24 21:53:00,
2013-02-24 17:08:00,34.1,27.0,29.83,NW,313,2.0,9.0,76,0.00,,,0.07,weatherlink.com 1.10,2013-02-24 22:08:00,
2013-02-24 17:23:00,33.9,28.0,29.83,WNW,288,1.0,7.0,78,0.00,,,0.07,weatherlink.com 1.10,2013-02-24 22:23:00,
2013-02-24 17:38:00,33.8,28.0,29.84,WNW,295,3.0,9.0,79,0.00,,,0.07,weatherlink.com 1.10,2013-02-24 22:38:00,
2013-02-24 17:53:00,33.5,28.0,29.85,NNW,327,1.0,7.0,81,0.00,,,0.07,weatherlink.com 1.10,2013-02-24 22:53:00,
2013-02-24 18:08:00,33.0,29.0,29.86,WNW,287,2.0,4.0,84,0.00,,,0.07,weatherlink.com 1.10,2013-02-24 23:08:00,
2013-02-24 18:23:00,32.6,29.0,29.87,WNW,300,3.0,5.0,86,0.00,,,0.07,weatherlink.com 1.10,2013-02-24 23:23:00,
2013-02-24 18:38:00,32.4,29.0,29.88,WNW,300,2.0,6.0,86,0.00,,,0.07,weatherlink.com 1.10,2013-02-24 23:38:00,
2013-02-24 18:53:00,32.3,29.0,29.89,NW,308,2.0,5.0,87,0.00,,,0.07,weatherlink.com 1.10,2013-02-24 23:53:00,
2013-02-24 19:09:00,32.2,29.0,29.89,WNW,287,1.0,5.0,87,0.00,,,0.07,weatherlink.com 1.10,2013-02-25 00:09:00,
2013-02-24 19:23:00,32.1,29.0,29.90,WNW,298,1.0,6.0,88,0.00,,,0.07,weatherlink.com 1.10,2013-02-25 00:23:00,
2013-02-24 19:38:00,32.0,29.0,29.90,WNW,284,0.0,5.0,89,0.00,,,0.07,weatherlink.com 1.10,2013-02-25 00:38:00,
2013-02-24 19:53:00,31.8,29.0,29.91,WNW,298,4.0,6.0,90,0.00,,,0.07,weatherlink.com 1.10,2013-02-25 00:53:00,
2013-02-24 20:08:00,32.0,29.0,29.92,NW,315,2.0,4.0,89,0.00,,,0.07,weatherlink.com 1.10,2013-02-25 01:08:00,
2013-02-24 20:23:00,32.0,29.0,29.92,WNW,291,1.0,5.0,89,0.00,,,0.07,weatherlink.com 1.10,2013-02-25 01:23:00,
2013-02-24 20:38:00,32.0,29.0,29.93,WNW,298,2.0,6.0,89,0.00,,,0.07,weatherlink.com 1.10,2013-02-25 01:38:00,
2013-02-24 20:54:00,32.1,29.0,29.93,NNW,347,1.0,5.0,88,0.00,,,0.07,weatherlink.com 1.10,2013-02-25 01:54:00,
2013-02-24 21:09:00,32.1,29.0,29.94,WNW,290,3.0,5.0,88,0.00,,,0.07,weatherlink.com 1.10,2013-02-25 02:09:00,
2013-02-24 21:24:00,32.1,29.0,29.94,NNW,340,1.0,7.0,87,0.00,,,0.07,weatherlink.com 1.10,2013-02-25 02:24:00,
2013-02-24 21:39:00,32.1,28.0,29.94,West,259,3.0,8.0,86,0.00,,,0.07,weatherlink.com 1.10,2013-02-25 02:39:00,
2013-02-24 21:54:00,32.1,28.0,29.95,WNW,293,4.0,7.0,85,0.00,,,0.07,weatherlink.com 1.10,2013-02-25 02:54:00,
2013-02-24 22:09:00,32.2,28.0,29.95,NNW,333,1.0,4.0,84,0.00,,,0.07,weatherlink.com 1.10,2013-02-25 03:09:00,
2013-02-24 22:24:00,32.1,28.0,29.95,WNW,288,1.0,6.0,84,0.00,,,0.07,weatherlink.com 1.10,2013-02-25 03:24:00,
2013-02-24 22:39:00,32.0,28.0,29.96,WNW,298,0.0,6.0,84,0.00,,,0.07,weatherlink.com 1.10,2013-02-25 03:39:00,
2013-02-24 22:54:00,31.8,28.0,29.96,North,349,2.0,6.0,85,0.00,,,0.07,weatherlink.com 1.10,2013-02-25 03:54:00,
2013-02-24 23:09:00,31.8,28.0,29.96,WNW,288,4.0,7.0,85,0.00,,,0.07,weatherlink.com 1.10,2013-02-25 04:09:00,
2013-02-24 23:24:00,31.8,28.0,29.96,NW,304,1.0,6.0,85,0.00,,,0.07,weatherlink.com 1.10,2013-02-25 04:24:00,
2013-02-24 23:39:00,31.8,28.0,29.96,West,281,1.0,6.0,85,0.00,,,0.07,weatherlink.com 1.10,2013-02-25 04:39:00,
2013-02-24 23:54:00,31.8,28.0,29.97,West,268,1.0,5.0,85,0.00,,,0.07,weatherlink.com 1.10,2013-02-25 04:54:00,